STARLINK-34832

Last updated on Tue Sep 16 2025 00:02:08 GMT+0000 (Coordinated Universal Time)

1 65475U 25195T 25257.83509667 -.00199417 00000+0 -11887-2 0 9993 2 65475 53.1559 1.1314 0002056 99.5220 260.6033 15.77727326 2961
UTC large
Height (km)
Speed (km/s)
/
Latitude / Longitude
Inclination (degrees)
Orbital Period (minutes)
Azimuth
Elevation
Range (km)
Doppler Factor

Next 0 passes for location: London (51.5072 / 0.1276)

Sorry there are no passes over London.